www.pogodaiklimat.ru

Погода и климат >> Архив погоды >> Россия >> Саратовская область >> Красный Кут


ПОГОДА в Красном Куте

  • Прогноз погоды в Красном Куте
  • Монитор погоды в Красном Куте

АРХИВ ПОГОДЫ в Красном Куте

Время (UTC), дата Ветер
(напр.,м/с)
 
Видим.   Явления Облачность Т
(С)
Тd
(С)
f
(%)
Тe
(С)
Тes
(С)
Комфортность P
(гПа)
Po
(гПа)
Тmin
(С)
Tmax
(С)
R
(мм)
R24
(мм)
S
(см)
09 11.06 Ю 2 10 км ясно +31.3 +6.8 22 +30 +47 жарко 1019.7 1014.0
12 11.06 Ю 1 10 км ясно +33.4 +4.8 17 +31 +44 жарко 1017.8 1012.2
15 11.06 ЮЗ 1 10 км ясно +32.6 +8.0 22 +31 +33 жарко 1016.8 1011.2 +33.7
18 11.06 штиль 0 10 км ясно +21.5 +11.2 52 +23 +23 комфорт 1017.3 1011.3
21 11.06 штиль 0 10 км ясно +15.8 +10.2 69 +16 +16 1017.1 1011.2
00 12.06 З 1 10 км ясно +13.2 +11.1 87 +13 +13 1017.0 1011.0
03 12.06 штиль 0 10 км ясно +21.8 +12.8 57 +24 +28 комфорт 1016.8 1011.0 +11.5
06 12.06 ЮЗ 1 10 км ясно +31.1 +10.1 27 +31 +45 жарко 1015.8 1010.2
09 12.06 С 3 10 км 3/3 1500 м
[Cu hum]
+33.7 +9.2 22 +32 +43 жарко 1014.9 1009.3
12 12.06 СЗ 2 10 км 3/3 1500 м
[Cu hum]
+34.3 +10.2 23 +33 +41 жарко 1013.5 1008.0
15 12.06 СЗ 2 10 км ясно +32.7 +9.9 25 +32 +34 жарко 1012.2 1006.6 +35.3
18 12.06 штиль 0 10 км 4/3 1500 м
[Sc Ac trans]
+22.0 +14.4 62 +25 +25 комфорт 1012.4 1006.6
21 12.06 СЗ 1 10 км 4/3 1500 м
[Sc Ac trans]
+19.5 +13.2 67 +22 +22 комфорт 1012.4 1006.6
00 13.06 С 4 10 км 3/3 1500 м
[Sc]
+21.6 +13.4 60 +24 +24 комфорт 1012.1 1006.3
03 13.06 СВ 6-10
{10}
10 км 6/4 1500 м
[Sc Ac trans Ci fib]
+20.8 +12.3 58 +23 +23 комфорт 1013.6 1007.8 +17.4
06 13.06 СВ 7-12
{14}
10 км 8/0
[Ac trans Ci fib]
+22.7 +11.9 50 +25 +28 комфорт 1016.0 1010.3
09 13.06 С 8-12
{13}
10 км 8/0
[Ac trans]
+21.7 +11.6 53 +24 +25 комфорт 1018.0 1012.2
12 13.06 С 8-12
{13}
10 км 3/0
[Ac trans]
+23.2 +5.4 32 +24 +25 комфорт 1018.5 1012.7
15 13.06 СВ 5-10
{13}
10 км ясно +20.5 +3.0 31 +21 +22 комфорт 1019.4 1013.6 +23.5
18 13.06 СВ 2
{10}
10 км ясно +14.5 +3.1 46 +14 +14 1021.2 1015.3
21 13.06 С 2 10 км ясно +9.1 +2.5 63 +8 +8 1022.3 1016.2
00 14.06 С 2 10 км ясно +6.4 +2.3 75 +4 +4 1023.0 1016.8
03 14.06 С 2 10 км 3/0
[Ac trans]
+13.1 +4.8 57 +13 +15 1023.5 1017.5 +5.2
06 14.06 СВ 2 10 км 6/0
[Ac trans Ci fib]
+18.9 +2.3 33 +20 +29 1023.3 1017.4
09 14.06 СЗ 2 10 км 6/0
[Ci fib]
+22.1 +2.8 28 +22 +37 комфорт 1021.5 1015.7
12 14.06 З 3 10 км 6/0
[Ci fib]
+24.2 +0.6 21 +23 +31 комфорт 1018.8 1013.1
15 14.06 З 4 10 км 10/0
[Ci fib]
+23.6 +0.9 22 +23 +24 комфорт 1017.1 1011.4 +24.8
18 14.06 ЮЗ 1 10 км 3/0
[Ac trans]
+16.5 +3.9 43 +17 +17 1015.5 1009.6
21 14.06 ЮЗ 3 10 км 8/4 1500 м
[Sc Ac trans]
+18.8 +5.5 42 +19 +19 1014.4 1008.6
00 15.06 С 3 10 км 8/5 1500 м
[Sc Ac trans]
+18.6 +6.0 44 +19 +19 1012.8 1006.9
03 15.06 штиль 0 10 км 10/10 1500 м
[Sc]
+17.1 +9.8 62 +17 +17 1011.9 1006.1 +15.7
06 15.06 С 2 10 км 10/4 1500 м
[Cb cap Ac trans]
+19.2 +9.6 54 +21 +24 комфорт 1012.8 1007.0
09 15.06 СВ 2 10 км 9/4 1500 м
[Cb cap Ac trans]
+20.1 +8.5 47 +22 +27 комфорт 1012.7 1006.9
12 15.06 СВ 2 10 км 10/10 1500 м
[Sc]
+20.8 +9.4 48 +23 +23 комфорт 1012.6 1006.8
15 15.06 СВ 2 10 км 10/10 1500 м
[Sc]
+20.3 +9.5 50 +22 +22 комфорт 1011.9 1006.1 +21.5
18 15.06 СВ 1 10 км 10/10 1500 м
[Sc]
+14.6 +10.3 75 +15 +15 1012.3 1006.4
21 15.06 СВ 1 10 км 10/10 1500 м
[Sc]
+17.0 +9.6 62 +18 +18 1012.2 1006.4
00 16.06 В 1 10 км 10/10 1500 м
[Sc]
+15.2 +9.3 68 +16 +16 1011.9 1006.0
03 16.06 В 1 10 км 10/10 1500 м
[Sc]
+15.9 +8.8 63 +17 +17 1011.8 1005.9 +14.2
06 16.06 Ю 2 10 км 6/4 1500 м
[Sc Ac trans]
+21.2 +8.6 44 +22 +28 комфорт 1011.7 1006.0
09 16.06 Ю 3 10 км 6/6 1500 м
[Sc]
+24.5 +10.8 42 +26 +32 жарко 1010.9 1005.2
12 16.06 З 2 10 км 8/8 1500 м
[Cb cap]
+26.1 +12.6 43 +28 +30 жарко 1009.6 1004.0
15 16.06 С 2 10 км 8/8 1500 м
[Cb cap]
+26.1 +12.7 43 +28 +28 жарко 1008.6 1002.9 +27.3
18 16.06 С 3 10 км 3/0
[Ac trans]
+20.5 +11.6 57 +23 +23 комфорт 1009.7 1004.0
21 16.06 СВ 4 10 км 3/0
[Ac trans]
+18.9 +10.4 58 +20 +20 1010.2 1004.4
00 17.06 С 3 10 км 3/0
[Ac trans]
+14.8 +8.9 68 +14 +14 1011.3 1005.4
03 17.06 С 4 10 км 3/0
[Ac trans]
+17.3 +8.9 58 +17 +18 1012.9 1007.0 +12.3
06 17.06 СВ 3 10 км ясно +23.0 +7.0 36 +24 +34 комфорт 1013.3 1007.5
09 17.06 СВ 2 10 км ясно +25.7 +6.7 30 +26 +43 жарко 1013.2 1007.5
12 17.06 С 3 10 км ясно +27.5 +6.5 26 +27 +36 жарко 1012.5 1006.8
15 17.06 СЗ 2 10 км ясно +27.0 +6.9 28 +27 +28 жарко 1011.9 1006.2 +28.4
18 17.06 С 1 10 км ясно +17.2 +8.7 57 +18 +18 1012.9 1007.1
21 17.06 штиль 0 10 км ясно +12.4 +8.8 79 +12 +12 1013.1 1007.1
00 18.06 Ю 1 10 км 6/0
[Ac trans Ci fib]
+12.1 +9.2 82 +12 +12 1012.9 1007.0
03 18.06 ЮЗ 1 10 км 6/0
[Ac trans Ci fib]
+18.3 +10.6 61 +20 +22 1013.0 1007.2 +10.9
06 18.06 СЗ 3 10 км 3/0
[Ac trans]
+26.6 +9.3 34 +27 +35 жарко 1012.6 1006.9

 

Местоположение метеостанции Красный Кут (Саратовская область, Россия): широта 50.95 долгота 46.97 высота над уровнем моря 50 м.

В архиве по умолчанию представлена погода в Красном Куте за последнюю неделю. Архивные данные за месяц целиком и за предыдущие месяцы, начиная с января 2011 года, Вы можете получить, выбрав интересующий диапазон дат из раскрывающегося списка и нажав кнопку "Ввод!".


*Определитесь, кто Вы:
робот инопланетянин человек

Внимание! Время в таблицах - всемирное. Для получения местного времени необходимо прибавить поправку, которая равна 4 ч.

Смотрите также архив погоды в соседних городах и на ближайших метеорологических станциях:

Погода в Маркс (Саратовская область, Россия) (85 км)
Погода в Саратове (Саратовская область, Россия) (95 км)
Погода в Саратове ЮВ (Саратовская область, Россия) (97 км)
Погода в Новоузенске (Саратовская область, Россия) (100 км)
Погода в Палласовке (Волгоградская область, Россия) (100 км)
Погода в Ершове (Саратовская область, Россия) (104 км)
Погода в Сплавнухе (Саратовская область, Россия) (112 км)
Погода в Октябрьском Городке (Саратовская область, Россия) (130 км)
Погода в Балаково (Саратовская область, Россия) (133 км)
Погода в Александровом Гае (Саратовская область, Россия) (143 км)

Пояснения к столбцам:

Ветер - указаны скорость ветра в м/с - средняя за 10 мин, порывы в срок и между сроками (в фигурных скобках) и направление, откуда дует ветер: С - северный, СВ - северо-восточный, В - восточный, ЮВ - юго-восточный, Ю - южный, ЮЗ - юго-западный, З - западный, СЗ - северо-западный.
Видимость - горизонтальная дальность видимости в метрах или километрах. При видимости от 1 до 10 км при отсутствии осадков обычно наблюдается дымка, при ухудшении видимости до 1 км и менее - туман. В сухую погоду видимость может ухудшаться дымом, пылью или мглою.
Явления - указаны атмосферные явления, наблюдавшиеся в срок или в последний час перед сроком; фигурными скобками обозначены явления, наблюдавшиеся между сроками (за 1-3 часа до срока); квадратными скобками обозначены град или гололедные отложения с указанием их диаметра в мм.
Облачность - указаны через наклонную черту общая и нижняя облачность в баллах и высота нижней границы облаков в метрах; квадратными скобками обозначены формы облаков: Ci - перистые, Cs - перисто-слоистые, Cc - перисто-кучевые, Ac - высококучевые, As - высокослоистые, Sc - слоисто-кучевые, Ns - слоисто-дождевые, Cu - кучевые, Cb - кучево-дождевые. Подробнее классификацию облаков см. в Атласе облаков (PDF).
T - Температура воздуха - температура, измеренная на высоте 2 м над землей.
Td - Температура точки росы - температура, при понижении до которой содержащийся в воздухе водяной пар достигнет насыщения.
f - Относительная влажность воздуха - влажноcть воздуха, измеренная на высоте 2 м над землей.
Te - Эффективная температура - температура, которую ощущает одетый по сезону человек в тени. Характеристика душности погоды. При расчете учитывается влияние влажности воздуха и скорости ветра на теплоощущения человека.
Tes - Эффективная температура на солнце - температура, которую ощущает человек, с поправкой на солнечный нагрев. Характеристика знойности погоды. Зависит от высоты солнца над горизонтом, облачности и скорости ветра. Ночью, в пасмурную погоду, а также при ветре 12 м/с и более поправка равна нулю.
P - Атмосферное давление - приведенное к уровню моря атмосферное давление.
Po - Атмосферное давление - измеренное на уровне метеостанции атмосферное давление.
Tmin - Минимальная температура - минимум температуры воздуха на высоте 2 м над землей.
Tmax - Максимальная температура - максимум температуры воздуха на высоте 2 м над землей.
R - Количество осадков - Количество выпавших осадков за период времени, мм. При наведении курсора мыши на число - период времени, за который выпало указанное количество осадков.
R24 - Количество осадков - Количество выпавших осадков за 24 часа, мм.
S - Снежный покров - Высота снежного покрова, см. При наведении курсора мыши на число - состояние снежного покрова и степень покрытия местности в баллах.